Weather observations for the past three days for
Florence Municipal Airport
Metric (Imperial)
Date Time (pdt) Wind (kph) Vis. (km) Weather Sky Cond. Temperature (ºC) Relative Humidity Wind Chill (°C) Heat Index (°C) Pressure Precipitation (cm)
Air Dwpt 6 hour altimeter (cm) sea level (mb) 1 hr 3 hr 6 hr
Max. Min.
04 07:35 S 15 2.82 Unknown Precip Fog/Mist BKN005 BKN010 OVC016 12 12 100% 76.1 0.0
04 07:15 S 9 16.09 Overcast SCT006 OVC019 12 12 100% 76.07 0.0
04 06:55 Vrbl 9 12.87 Overcast OVC005 12 12 100% 76.07 0.0
04 06:35 S 9 2.82 Unknown Precip Fog/Mist OVC004 12 12 100% 76.05 0.0
04 06:15 S 13 4.02 Fog/Mist OVC004 12 12 100% 76.02 0.0
04 05:55 S 11 6.44 Fog/Mist OVC005 12 12 100% 76.02 0.0
04 05:35 Vrbl 7 4.02 Unknown Precip Fog/Mist OVC005 12 12 100% 76.02 0.0
04 05:15 S 9 4.83 Fog/Mist OVC004 12 12 100% 76.02 0.0
04 04:55 S 9 4.83 Unknown Precip Fog/Mist OVC004 12 12 100% 76.02 0.0
04 04:35 S 9 4.83 Unknown Precip Fog/Mist OVC004 12 12 100% 76.02 0.0
04 04:15 S 13 4.83 Unknown Precip Fog/Mist OVC004 12 12 100% 76.02 0.0
04 03:55 Vrbl 11 G 20 4.02 Unknown Precip Fog/Mist OVC004 12 12 100% 76.02 0.0 0.03
04 03:35 Vrbl 7 4.83 Unknown Precip Fog/Mist OVC004 12 12 100% 76.02 0.0
04 03:15 S 7 G 19 6.44 Fog/Mist OVC003 12 12 100% 76.05 0.0
04 02:55 S 11 4.83 Unknown Precip Fog/Mist OVC004 12 12 100% 76.05 0.0
04 02:35 S 15 9.66 Fog/Mist OVC005 12 12 100% 76.05 0.0
04 02:15 S 15 G 24 6.44 Fog/Mist OVC006 12 12 100% 76.05 0.0
04 01:55 S 15 G 26 6.44 Unknown Precip Fog/Mist OVC005 12 12 100% 76.05 0.0
04 01:35 S 17 6.44 Unknown Precip Fog/Mist BKN005 OVC010 12 12 100% 76.05 0.0
04 01:15 S 13 G 24 4.83 Unknown Precip Fog/Mist OVC004 12 12 100% 76.02 0.0
04 00:55 S 9 G 20 4.02 Unknown Precip Fog/Mist OVC004 12 12 100% 76.02 0.0
04 00:35 S 15 6.44 Fog/Mist OVC004 12 12 100% 76.02 0.0
04 00:15 SW 15 4.83 Fog/Mist OVC004 12 12 100% 76.02 0.0
03 23:55 S 13 4.83 Fog/Mist OVC004 12 12 100% 76.02 0.0
03 23:35 S 13 4.83 Fog/Mist OVC004 12 12 100% 76 0.0
03 23:15 S 13 8.05 Fog/Mist OVC004 12 12 100% 76 0.0
03 22:55 S 11 14.48 Overcast OVC004 12 12 100% 76 0.0
03 22:35 S 9 14.48 Overcast OVC004 12 12 100% 76 0.0
03 22:15 Vrbl 11 8.05 Fog/Mist OVC004 12 12 100% 76 0.0
03 21:55 SW 11 4.83 Fog/Mist OVC003 12 12 100% 75.97 0.0
03 21:35 SW 9 4.02 Unknown Precip Fog/Mist OVC003 12 12 100% 76 0.0
03 21:15 S 11 4.02 Unknown Precip Fog/Mist OVC003 12 12 100% 75.97 0.0
03 20:55 SW 7 G 20 4.83 Fog/Mist OVC004 12 12 100% 75.97 0.0
03 20:35 S 15 G 28 4.83 Fog/Mist OVC003 12 12 100% 75.95 0.0
03 20:15 S 19 1.21 Unknown Precip Fog/Mist OVC002 12 12 100% 75.95 0.0
03 19:55 S 13 1.61 Unknown Precip Fog/Mist OVC002 12 12 100% 75.9 0.0
03 19:35 S 13 3.22 Fog/Mist OVC003 12 12 100% 75.9 0.0
03 19:15 S 15 4.83 Fog/Mist OVC003 12 12 100% 75.87 0.0
03 18:55 SW 13 3.22 Fog/Mist OVC003 12 12 100% 75.87 0.0
03 18:35 Vrbl 7 G 22 4.83 Fog/Mist OVC003 12 12 100% 75.87 0.0
03 18:15 SW 19 6.44 Fog/Mist OVC003 12 12 100% 75.84 0.0
03 17:55 SW 13 G 24 6.44 Fog/Mist OVC003 12 12 100% 75.82 0.0
03 17:35 SW 17 G 26 8.05 Fog/Mist OVC003 12 12 100% 75.79 0.0
03 17:15 SW 13 G 22 14.48 Overcast OVC003 13 12 94% 75.79 0.0
03 16:55 SW 15 16.09 Overcast OVC004 13 11 88% 75.77 0.0
03 16:35 SW 13 14.48 Mostly Cloudy BKN004 BKN007 13 11 88% 75.77 0.0
03 16:15 SW 13 16.09 Mostly Cloudy BKN007 14 11 82% 75.79 0.0
03 15:55 S 17 16.09 Mostly Cloudy BKN006 14 12 88% 75.79 0.0
03 15:35 SW 20 16.09 Partly Cloudy SCT006 14 11 82% 75.82 0.0
03 15:15 SW 17 16.09 A Few Clouds FEW005 13 11 88% 75.84 0.0
03 14:55 SW 17 16.09 Partly Cloudy SCT005 13 11 88% 75.84 0.0
03 14:35 SW 13 G 24 14.48 Partly Cloudy SCT005 13 11 88% 75.84 0.0
03 14:15 SW 13 14.48 Partly Cloudy SCT004 13 11 88% 75.84 0.0
03 13:55 SW 17 16.09 A Few Clouds FEW004 13 11 88% 75.84 0.0
03 13:35 W 15 16.09 Fair CLR 13 11 88% 75.82 0.0
03 13:15 Vrbl 11 16.09 A Few Clouds FEW005 13 11 88% 75.82 0.0
03 12:55 W 11 3.22 Fog/Mist FEW005 12 11 94% 75.82 0.0
03 12:35 W 13 6.44 Fog/Mist CLR 13 11 88% 75.82 0.0
03 11:55 Vrbl 11 16.09 Fair CLR 12 11 94% 75.84 0.0
03 11:35 NW 11 14.48 Fair CLR 12 11 94% 75.84 0.0
03 11:15 Vrbl 11 11.27 A Few Clouds FEW003 12 11 94% 75.84 0.0
03 10:55 Vrbl 11 14.48 Fair CLR 12 11 94% 75.84 0.0
03 10:15 W 9 9.66 Fog/Mist CLR 13 11 88% 75.82 0.0
03 09:55 Vrbl 7 9.66 Fog/Mist CLR 13 11 88% 75.82 0.0
03 09:35 W 6 9.66 Fog/Mist CLR 13 12 94% 75.82 0.0
03 09:15 Vrbl 7 6.44 Fog/Mist CLR 12 11 94% 75.82 0.0
03 08:55 Calm 11.27 Fair CLR 12 12 100% 75.82 0.0
03 08:35 NW 6 8.05 Fog/Mist SCT002 11 11 100% 75.82 0.0
03 08:15 Calm 2.01 Fog/Mist OVC002 10 10 100% 75.82 0.0
03 07:55 Calm 1.61 Fog/Mist BKN002 10 10 100% 75.82 0.0
03 07:35 Calm 3.22 Fog/Mist CLR 11 11 100% 75.82 0.0
03 07:15 Calm 3.22 Fog/Mist CLR 10 10 100% 75.79 0.0
03 06:55 SW 7 4.83 Fog/Mist CLR 10 10 100% 9 75.82 0.0
03 06:35 Calm 16.09 Fair CLR 10 10 100% 75.79 0.0
03 06:15 Calm 14.48 Fair CLR 10 10 100% 75.77 0.0
03 05:55 Calm 14.48 Fair CLR 9 9 100% 75.77 0.0
03 05:35 Calm 14.48 Fair CLR 9 9 100% 75.77 0.0
03 05:15 Calm 14.48 Fair CLR 10 10 100% 75.77 0.0
03 04:55 Calm 14.48 Fair CLR 10 10 100% 75.79 0.0
03 04:35 Calm 14.48 Fair CLR 10 10 100% 75.82 0.0
03 04:15 Calm 14.48 Fair CLR 10 10 100% 75.82 0.0
03 03:55 SE 7 12.87 Fair CLR 10 10 100% 9 75.82 0.0
03 03:35 Calm 11.27 Fair CLR 9 9 100% 75.82 0.0
03 03:15 Calm 8.05 Fog/Mist CLR 9 9 100% 75.82 0.0
03 02:55 Calm 8.05 Fog/Mist FEW002 8 8 100% 75.84 0.0
03 02:35 Calm 6.44 Fog/Mist BKN002 9 9 100% 75.84 0.0
03 02:15 Calm 4.83 Fog/Mist BKN002 9 8 94% 75.84 0.0
03 01:55 Calm 6.44 Fog/Mist SCT002 9 9 100% 75.84 0.0
03 01:35 Calm 6.44 Fog/Mist BKN002 9 8 94% 75.87 0.0
03 01:15 Calm 4.83 Fog/Mist BKN002 9 9 100% 75.87 0.0
03 00:55 Calm 6.44 Fog/Mist BKN002 9 9 100% 75.9 0.0
03 00:35 Calm 4.02 Fog/Mist BKN002 9 9 100% 75.9 0.0
03 00:15 Calm 6.44 Fog/Mist OVC002 9 9 100% 75.9 0.0
02 23:55 Calm 6.44 Fog/Mist OVC002 10 10 100% 75.87 0.0
02 23:35 Calm 9.66 Fog/Mist SCT002 10 10 100% 75.9 0.0
02 23:15 Calm 8.05 Fog/Mist CLR 10 10 100% 75.9 0.0
02 22:55 Calm 9.66 Fog/Mist FEW002 10 10 100% 75.92 0.0
02 22:35 Calm 9.66 Fog/Mist FEW002 10 10 100% 75.92 0.0
02 22:15 Calm 11.27 Partly Cloudy SCT003 10 10 100% 75.92 0.0
02 21:55 Calm 9.66 Fog/Mist OVC002 10 10 100% 75.92 0.0
02 21:35 NW 6 11.27 Overcast OVC002 11 10 94% 75.92 0.0
02 21:15 Calm 12.87 Mostly Cloudy BKN002 11 11 100% 75.9 0.0
02 20:55 Calm 12.87 Partly Cloudy SCT003 11 11 100% 75.9 0.0
02 20:35 N 9 11.27 Fair CLR 12 11 94% 75.87 0.0
02 20:15 N 6 11.27 Fair CLR 12 11 94% 75.87 0.0
02 19:55 NW 11 14.48 Fair CLR 12 11 94% 75.87 0.0
02 19:35 N 17 14.48 Fair CLR 13 11 88% 75.9 0.0
02 19:15 N 13 16.09 Fair CLR 13 11 88% 75.9 0.0
02 18:55 N 15 G 26 16.09 Fair CLR 13 11 88% 75.9 0.0
02 18:35 N 22 G 33 16.09 Fair CLR 13 11 88% 75.9 0.0
02 18:15 N 19 G 39 16.09 Fair CLR 13 11 88% 75.92 0.0
02 17:55 N 28 G 37 16.09 Fair CLR 13 11 88% 75.92 0.0
02 17:35 NW 22 G 37 16.09 Fair CLR 13 11 88% 75.92 0.0
02 17:15 N 28 G 39 16.09 Fair CLR 14 11 82% 75.92 0.0
02 16:55 N 22 G 37 16.09 Fair CLR 14 11 82% 75.92 0.0
02 16:35 NW 28 16.09 Fair CLR 14 11 82% 75.92 0.0
02 16:15 NW 30 G 41 16.09 Fair CLR 14 11 82% 75.95 0.0
02 15:55 N 28 G 37 16.09 Fair CLR 14 11 82% 75.97 0.0
02 15:35 N 22 G 35 16.09 Fair CLR 15 11 77% 76 0.0
02 15:15 NW 30 16.09 Fair CLR 15 11 77% 76.02 0.0
02 14:55 N 26 G 37 16.09 Fair CLR 14 11 82% 76.05 0.0
02 14:35 NW 24 16.09 Fair CLR 14 11 82% 76.05 0.0
02 14:15 NW 24 16.09 Fair CLR 14 10 77% 76.07 0.0
02 13:55 NW 17 G 28 16.09 Fair CLR 13 10 82% 76.1 0.0
02 13:35 NW 24 16.09 Fair CLR 14 10 77% 76.1 0.0
02 13:15 N 20 G 37 16.09 Fair CLR 14 10 77% 76.1 0.0
02 12:55 NW 22 G 33 16.09 Fair CLR 14 10 77% 76.12 0.0
02 12:35 NW 24 16.09 Fair CLR 14 10 77% 76.12 0.0
02 12:15 N 22 G 33 16.09 Fair CLR 13 10 82% 76.15 0.0
02 11:55 N 24 16.09 Fair CLR 14 10 77% 76.15 0.0
02 11:35 NW 24 16.09 Fair CLR 14 10 77% 76.17 0.0
02 11:15 N 24 16.09 A Few Clouds FEW022 14 10 77% 76.17 0.0
02 10:55 N 19 16.09 Partly Cloudy SCT021 14 10 77% 76.17 0.0
02 10:35 NW 19 16.09 Mostly Cloudy BKN020 14 10 77% 76.2 0.0
02 10:15 NW 17 16.09 Mostly Cloudy BKN019 14 10 77% 76.2 0.0
02 09:55 Calm 16.09 Mostly Cloudy BKN017 BKN110 13 9 77% 76.23 0.0
02 09:35 Vrbl 6 12.87 Overcast BKN016 OVC110 12 9 82% 76.23 0.0
02 09:15 Calm 16.09 Overcast OVC016 12 9 82% 76.25 0.0
02 08:55 Calm 16.09 Overcast OVC016 11 9 88% 76.25 0.0
02 08:35 Calm 16.09 Overcast OVC016 11 9 88% 76.25 0.0
02 08:15 Calm 16.09 Overcast OVC016 10 9 94% 76.23 0.0
02 07:55 Calm 16.09 Overcast OVC016 10 9 94% 76.25 0.0
02 07:35 Calm 16.09 Overcast OVC017 9 9 100% 76.23 0.0
02 07:15 Calm 16.09 Overcast OVC016 9 9 100% 76.25 0.0
02 06:55 Calm 16.09 Overcast OVC016 9 8 94% 76.25 0.0
02 06:35 Calm 16.09 Overcast OVC016 9 8 94% 76.23 0.0
02 06:15 Calm 16.09 Overcast OVC016 9 8 94% 76.25 0.0
02 05:55 Calm 16.09 Overcast BKN017 OVC047 8 8 100% 76.25 0.0
02 05:35 Calm 16.09 Overcast BKN017 OVC046 9 8 94% 76.25 0.0
02 05:15 Calm 16.09 Overcast OVC017 8 8 100% 76.25 0.0
02 04:55 Calm 16.09 Overcast OVC017 8 8 100% 76.28 0.0
02 04:35 Calm 16.09 Overcast OVC016 8 8 100% 76.23 0.0
02 04:15 Calm 16.09 Overcast OVC016 8 8 100% 76.28 0.0
02 03:55 Calm 16.09 Overcast OVC018 8 8 100% 76.28 0.0
02 03:35 Calm 16.09 Overcast OVC018 9 8 94% 76.28 0.0
02 03:15 Calm 16.09 Mostly Cloudy BKN018 8 8 100% 76.28 0.0
02 02:55 Calm 16.09 Mostly Cloudy BKN019 9 8 94% 76.3 0.0
02 02:35 Calm 16.09 Partly Cloudy SCT019 9 8 94% 76.3 0.0
02 02:15 Calm 16.09 A Few Clouds FEW017 9 8 94% 76.3 0.0
02 01:55 Calm 16.09 Partly Cloudy FEW016 SCT040 9 8 94% 76.3 0.0
02 01:35 Calm 16.09 Fair CLR 10 8 88% 76.35 0.0
02 01:15 N 11 16.09 Fair CLR 11 8 82% 76.35 0.0
02 00:55 N 17 G 28 16.09 Fair CLR 10 8 88% 8 76.35 0.0
02 00:35 N 19 16.09 Fair CLR 11 8 82% 76.35 0.0
02 00:15 N 13 G 31 16.09 A Few Clouds FEW018 11 9 88% 76.38 0.0
01 23:55 N 22 G 33 16.09 Mostly Cloudy BKN017 11 8 82% 76.38 0.0
01 23:35 N 19 16.09 Overcast OVC017 11 9 88% 76.38 0.0
01 23:15 N 19 G 31 16.09 Overcast OVC017 11 8 82% 76.4 0.0
01 22:55 N 22 G 33 16.09 Overcast OVC018 11 8 82% 76.4 0.0
01 22:35 N 13 G 30 16.09 Overcast OVC017 11 9 88% 76.4 0.0
01 22:15 N 17 G 28 16.09 Overcast OVC018 11 9 88% 76.4 0.0
01 21:55 N 20 G 31 16.09 Overcast OVC017 11 9 88% 76.4 0.0
01 21:35 N 20 G 30 16.09 Overcast OVC018 11 9 88% 76.4 0.0
01 21:15 N 17 G 28 16.09 Overcast OVC018 12 9 82% 76.38 0.0
01 20:55 N 20 G 31 16.09 Mostly Cloudy BKN019 11 9 88% 76.38 0.0
01 20:35 N 22 16.09 Overcast OVC019 11 9 88% 76.38 0.0
01 20:15 N 17 G 30 16.09 Overcast OVC020 12 9 82% 76.38 0.0
01 19:55 N 22 16.09 Overcast OVC018 12 9 82% 76.35 0.0
01 19:35 N 17 G 31 16.09 Overcast OVC015 12 10 88% 76.35 0.0
01 19:15 N 22 G 31 16.09 Overcast OVC015 12 10 88% 76.35 0.0
01 18:55 N 20 G 33 16.09 Overcast OVC015 12 10 88% 76.35 0.0
01 18:35 N 19 G 33 16.09 Overcast OVC015 12 11 94% 76.35 0.0
01 18:15 N 22 G 33 16.09 Mostly Cloudy BKN016 12 10 88% 76.33 0.0
01 17:55 NW 22 G 35 16.09 A Few Clouds FEW016 13 10 82% 76.33 0.0
01 17:35 NW 22 G 33 16.09 Fair CLR 13 10 82% 76.33 0.0
01 17:15 NW 24 G 35 16.09 Fair CLR 13 10 82% 76.33 0.0
01 16:55 NW 28 G 39 16.09 Fair CLR 14 10 77% 76.33 0.0
01 16:35 NW 30 G 41 16.09 Fair CLR 14 11 82% 76.33 0.0
01 16:15 NW 30 G 41 16.09 Fair CLR 14 11 82% 76.35 0.0
01 15:55 NW 28 16.09 Fair CLR 14 11 82% 76.38 0.0
01 15:35 NW 26 16.09 A Few Clouds FEW018 14 11 82% 76.4 0.0
01 15:15 NW 22 G 37 16.09 Fair CLR 14 11 82% 76.4 0.0
01 14:55 NW 24 G 35 16.09 Fair CLR 15 11 77% 76.4 0.0
01 14:35 NW 28 16.09 A Few Clouds FEW014 14 10 77% 76.4 0.0
01 14:15 NW 26 G 37 16.09 A Few Clouds FEW015 14 11 82% 76.4 0.0
01 13:55 NW 26 G 37 16.09 Partly Cloudy SCT017 14 10 77% 76.4 0.0
01 13:35 NW 22 G 33 16.09 Mostly Cloudy BKN017 14 11 82% 76.43 0.0
01 13:15 NW 22 G 31 16.09 Fair CLR 14 11 82% 76.43 0.0
01 12:55 NW 22 G 31 16.09 Fair CLR 14 11 82% 76.43 0.0
01 12:35 NW 24 G 33 16.09 Fair CLR 14 11 82% 76.43 0.0
01 12:15 NW 22 16.09 A Few Clouds FEW013 14 11 82% 76.43 0.0
01 11:55 N 20 16.09 Partly Cloudy SCT013 SCT021 14 11 82% 76.45 0.0
01 11:35 N 19 G 28 16.09 A Few Clouds FEW100 14 11 82% 76.45 0.0
01 10:55 NW 15 16.09 Mostly Cloudy SCT018 BKN023 BKN095 13 11 88% 76.45 0.0
01 10:35 NW 19 16.09 Mostly Cloudy BKN018 BKN023 BKN095 13 10 82% 76.43 0.0
01 10:15 NW 15 G 24 16.09 Overcast OVC017 13 10 82% 76.43 0.0
01 09:55 NW 13 16.09 Overcast OVC017 13 10 82% 76.43 0.0
01 09:35 NW 17 16.09 Overcast OVC016 13 10 82% 76.4 0.0
01 09:15 NW 15 14.48 Overcast OVC017 13 10 82% 76.43 0.0
01 08:55 NW 15 16.09 Overcast OVC016 12 10 88% 76.43 0.0
01 08:35 NW 15 16.09 Overcast OVC016 12 10 88% 76.43 0.0
01 08:15 NW 13 16.09 Mostly Cloudy BKN017 12 10 88% 76.4 0.0
01 07:55 N 11 G 24 16.09 A Few Clouds FEW017 12 10 88% 76.38 0.0
Date Time (pdt) Wind (kph) Vis. (km) Weather Sky Cond. Air Dwpt Max. Min. Relative Humidity Wind Chill (°C) Heat Index (°C) altimeter (cm) sea level (mb) 1 hr 3 hr 6 hr
6 hour
Temperature (ºC) Pressure Precipitation (cm)